weather.gov     
National Weather Service

Terminal Aerodrome Forecast
NWS Homepage
This page is being discontinued on March 12, 2014.
The same data is available at this site. Please update your bookmarks.
Thank you, and we apologize for the inconvenience.
Please send an email to SR-SRH.Webmaster@noaa.gov with any concerns.


Current Version
Previous Version:    01  02  03  04  05  06  07  08  09  10  11  12  13  14  15  16  17  18  19  20  21  22  23  24  25  26  27  28  29  
[Printable]
420
FTUS43 KJKL 222300
TAFLOZ
TAF
KLOZ 222335Z 2300/2324 16004KT P6SM VCSH SCT030 OVC060
     FM230200 16004KT 6SM -SHRA SCT015 OVC030
     FM230500 17004KT 6SM -SHRA OVC015
     FM230800 19005KT P6SM VCSH OVC009
     FM231800 16005KT P6SM VCSH OVC015=


U.S. Dept. of Commerce
NOAA National Weather Service
1325 East West Highway
Silver Spring, MD 20910
E-mail: w-nws.webmaster@noaa.gov
Page last modified: May 16, 2007
NATIONAL WEATHER SERVICE: for Safety, for Work, for Fun - FOR LIFE